Greensboro, NC

1:03 PM EDT on April 26, 2017 (GMT -0400)
Piedmont Triad International

Weather History for KGSO - March, 2013

Change the Weather History Date:

Tuesday, March 19, 2013

  Actual Average Record
Temperature  
Mean Temperature 50 °F 51 °F  
Max Temperature 65 °F 62 °F 85 °F (1927)
Min Temperature 35 °F 40 °F 18 °F (1967)
Degree Days  
Heating Degree Days 15 14  
Month to date heating degree days 380 320  
Since 1 July heating degree days 3084 3175  
Cooling Degree Days 0 0  
Month to date cooling degree days 0 0  
Year to date cooling degree days 0 0  
Moisture  
Dew Point 27 °F    
Average Humidity 57    
Maximum Humidity 100    
Minimum Humidity 14    
Precipitation  
Precipitation 0.00 in 0.12 in 1.27 in (1944)
Month to date precipitation 1.43 2.28  
Year to date precipitation 10.10 8.30  
Snow  
Snow 0.00 in 0.10 in 0.50 in (1947)
Month to date snowfall 0.0 0.7  
Since 1 July snowfall 3.6 7.4  
Snow Depth 0.00 in    
Sea Level Pressure  
Sea Level Pressure 29.88 in    
Wind  
Wind Speed 12 mph (West)    
Max Wind Speed 29 mph    
Max Gust Speed 40 mph    
Visibility 8 miles    
Events Fog    
T = Trace of Precipitation, MM = Missing Value Source: NWS Daily Summary

Daily Weather History Graph

Daily Weather History Graph

Search for Another Location

Airport or City:

Trip Planner

Search our weather history database for the weather conditions in past years. The results will help you decide how hot, cold, wet, or windy it might be!

Date:

Astronomy

Mar. 19, 2013 Rise Set
Actual Time 7:24 AM EDT 7:30 PM EDT
Civil Twilight 6:58 AM EDT 7:56 PM EDT
Nautical Twilight 6:29 AM EDT 8:26 PM EDT
Astronomical Twilight 5:58 AM EDT 8:56 PM EDT
Moon 12:23 PM EDT (3/19) 2:06 AM EDT (3/19)
Length of Visible Light 12h 57m
Length of Day
12h 06m
Waxing Crescent, 49% of the Moon is Illuminated
Mar 19
Waxing Crescent
Mar 19
First Quarter
Mar 27
Full
Apr 3
Last Quarter
Apr 10
New

Hourly Weather History & Observations

Time (EDT) Temp. Windchill Dew Point Humidity Pressure Visibility Wind Dir Wind Speed Gust Speed Precip Events Conditions
12:22 AM 37.4 °F 33.8 °F 35.6 °F 93% 29.88 in 10.0 mi NNW 4.6 mph - N/A   Overcast
12:54 AM 37.0 °F 34.5 °F 36.0 °F 96% 29.88 in 10.0 mi North 3.5 mph - N/A   Overcast
1:54 AM 37.0 °F - 36.0 °F 96% 29.87 in 9.0 mi Calm Calm - N/A   Overcast
2:32 AM 37.4 °F 34.9 °F 35.6 °F 93% 29.85 in 10.0 mi NNW 3.5 mph - N/A   Overcast
2:54 AM 37.0 °F - 36.0 °F 96% 29.85 in 6.0 mi Calm Calm - N/A   Overcast
3:41 AM 37.4 °F 34.9 °F 35.6 °F 93% 29.83 in 10.0 mi WNW 3.5 mph - N/A   Overcast
3:54 AM 37.0 °F - 35.1 °F 93% 29.84 in 10.0 mi Calm Calm - N/A   Overcast
4:43 AM 35.6 °F 30.7 °F 33.8 °F 93% 29.81 in 9.0 mi SW 5.8 mph - N/A   Scattered Clouds
4:54 AM 36.0 °F 30.3 °F 34.0 °F 93% 29.83 in 8.0 mi SW 6.9 mph - N/A   Scattered Clouds
5:08 AM 35.6 °F 30.7 °F 35.6 °F 100% 29.81 in 1.0 mi SW 5.8 mph - N/A   Mist
5:15 AM 35.6 °F 29.9 °F 35.6 °F 100% 29.81 in 0.5 mi SW 6.9 mph - N/A Fog Fog
5:30 AM 35.6 °F 29.2 °F 35.6 °F 100% 29.81 in 1.0 mi SW 8.1 mph - N/A   Overcast
5:37 AM 35.6 °F 29.2 °F 35.6 °F 100% 29.81 in 2.0 mi WSW 8.1 mph - N/A   Mostly Cloudy
5:45 AM 35.6 °F 29.9 °F 35.6 °F 100% 29.82 in 4.0 mi WSW 6.9 mph - N/A   Overcast
5:54 AM 36.0 °F 31.1 °F 35.1 °F 97% 29.83 in 3.0 mi SW 5.8 mph - N/A   Mostly Cloudy
6:54 AM 36.0 °F 30.3 °F 35.1 °F 97% 29.83 in 3.0 mi WNW 6.9 mph - N/A   Mostly Cloudy
7:47 AM 35.6 °F 29.9 °F 35.6 °F 100% 29.83 in 4.0 mi WSW 6.9 mph - N/A   Scattered Clouds
7:54 AM 36.0 °F 29.0 °F 35.1 °F 97% 29.85 in 4.0 mi WSW 9.2 mph - N/A   Partly Cloudy
8:54 AM 39.0 °F 33.4 °F 37.0 °F 93% 29.88 in 5.0 mi West 8.1 mph - N/A   Partly Cloudy
9:54 AM 42.1 °F 37.1 °F 39.0 °F 89% 29.90 in 10.0 mi West 8.1 mph 18.4 mph N/A   Partly Cloudy
10:54 AM 51.1 °F - 35.1 °F 54% 29.89 in 10.0 mi WNW 13.8 mph 25.3 mph N/A   Clear
11:54 AM 55.9 °F - 28.9 °F 36% 29.88 in 10.0 mi WNW 18.4 mph - N/A   Clear
12:54 PM 60.1 °F - 23.0 °F 24% 29.88 in 10.0 mi WNW 19.6 mph 27.6 mph N/A   Clear
1:54 PM 61.0 °F - 21.0 °F 21% 29.88 in 10.0 mi NW 13.8 mph 24.2 mph N/A   Clear
2:54 PM 63.0 °F - 21.0 °F 20% 29.88 in 10.0 mi West 17.3 mph 25.3 mph N/A   Clear
3:54 PM 64.0 °F - 17.1 °F 16% 29.87 in 10.0 mi WNW 23.0 mph 32.2 mph N/A   Clear
4:54 PM 63.0 °F - 16.0 °F 16% 29.88 in 10.0 mi WNW 24.2 mph 33.4 mph N/A   Partly Cloudy
5:54 PM 62.1 °F - 14.0 °F 15% 29.89 in 10.0 mi WNW 19.6 mph 28.8 mph N/A   Partly Cloudy
6:54 PM 59.0 °F - 16.0 °F 19% 29.92 in 10.0 mi WNW 15.0 mph 24.2 mph N/A   Clear
7:54 PM 55.9 °F - 15.1 °F 20% 29.95 in 10.0 mi WNW 18.4 mph 24.2 mph N/A   Clear
8:54 PM 52.0 °F - 17.1 °F 25% 29.99 in 10.0 mi NW 10.4 mph 20.7 mph N/A   Clear
9:54 PM 51.1 °F - 9.0 °F 18% 30.01 in 10.0 mi NW 12.7 mph - N/A   Clear
10:54 PM 48.9 °F - 3.9 °F 16% 30.02 in 10.0 mi NNW 11.5 mph 20.7 mph N/A   Clear
11:54 PM 46.9 °F - 3.9 °F 17% 30.03 in 10.0 mi NNW 8.1 mph - N/A   Clear